GOES 15

Last updated on Wed Jul 16 2025 00:02:34 GMT+0000 (Coordinated Universal Time)

1 36411U 10008A 25196.49940356 .00000046 00000+0 00000+0 0 9995 2 36411 0.4073 85.3230 0003434 111.2421 338.1054 1.00272667 56262
UTC large
Height (km)
Speed (km/s)
/
Latitude / Longitude
Inclination (degrees)
Orbital Period (minutes)
Azimuth
Elevation
Range (km)
Doppler Factor

Next 0 passes for location: London (51.5072 / 0.1276)

Sorry there are no passes over London.